Flag for U.S.A. Weather past 2 weeks in Lexington, North Carolina, U.S.A.

Now
67 °F

Passing clouds.


Feels Like: 67 °F
Forecast: 66 / 85 °F
Wind: No wind

Location: Davidson County Airport

Current Time: Jul 28, 2014 at 5:39:32 AM

Latest Report: Jul 28, 2014 at 4:55 AM


Visibility: 10 mi

Pressure: 29.80 "Hg

Humidity: 100%

Dew point: 67 °F

Location of LexingtonLocation

Historic Weather in Lexington — Graph

°F

Lexington temperature yesterday

Maximum temperature yesterday: 87 °F (at 3:55 PM)
Minimum temperature yesterday: 68 °F (at 5:35 AM)
Average temperature yesterday: 77 °F

Past Weeks' High & Low Weather Summary

 TemperatureHumidityPressure
High92 °F (Jul 14, 3:15 PM)100% (Jul 13, 5:35 AM)30.21 "Hg (Jul 13, 5:35 AM)
Low55 °F (Jul 17, 6:15 AM)39% (Jul 14, 3:15 PM)29.74 "Hg (Jul 27, 10:15 PM)
Average74 °F81%30.02 "Hg
* Reported Jul 13 4:15 AM — Jul 28 4:15 AM, Lexington, Weather by CustomWeather, © 2014

Note: Actual official high and low records may vary slightly from our data, if they occured in-between our weather recording intervals... More about our weather records

Advertising

Lexington weather history for previous 24 hours

 ConditionsComfort  
Time TempWeatherWind HumidityBarometerVisibility
4:15 AM
Jul 28
68 °FClear.3 mph100%29.80 "Hg10 mi
3:55 AM68 °FClear.3 mph100%29.81 "Hg10 mi
3:15 AM69 °FLight rain. Partly cloudy.No wind100%29.81 "Hg10 mi
2:55 AM69 °FHeavy rain. Overcast.3 mph100%29.87 "Hg7 mi
2:15 AM74 °FLight rain. Partly cloudy.7 mph76%29.87 "Hg10 mi
1:55 AM77 °FLight rain. Clear.5 mph66%29.85 "Hg10 mi
1:15 AM78 °FClear.9 mph63%29.83 "Hg10 mi
12:55 AM78 °FClear.6 mph66%29.82 "Hg10 mi
12:35 AM77 °FClear.No wind79%29.82 "Hg10 mi
12:15 AM78 °FClear.No wind78%29.81 "Hg10 mi
11:55 PM
Jul 27
78 °FClear.No wind77%29.80 "Hg10 mi
11:35 PM79 °FClear.No wind76%29.81 "Hg10 mi
11:15 PM80 °FClear.No wind74%29.81 "Hg10 mi
10:55 PM81 °FClear.5 mph71%29.81 "Hg10 mi
10:15 PM81 °FLight rain. Clear.12 mph74%29.74 "Hg10 mi
9:55 PM80 °FClear.12 mph75%29.80 "Hg10 mi
9:35 PM79 °FLight rain. Clear.6 mph78%29.83 "Hg10 mi
9:15 PM79 °FSunny.5 mph79%29.83 "Hg10 mi
8:55 PM79 °FSunny.3 mph77%29.85 "Hg10 mi
8:35 PM79 °FSunny.No wind79%29.85 "Hg10 mi
8:15 PM81 °FLight rain. Scattered clouds.6 mph70%29.84 "Hg10 mi
7:55 PM81 °FLight rain. Sunny.3 mph70%29.86 "Hg10 mi
7:15 PM82 °FSunny.5 mph69%29.85 "Hg10 mi
6:55 PM83 °FSunny.No wind73%29.84 "Hg10 mi
6:35 PM83 °FSunny.5 mph71%29.85 "Hg10 mi
6:15 PM84 °FSunny.6 mph69%29.85 "Hg10 mi
5:55 PM85 °FSunny.3 mph70%29.86 "Hg10 mi
5:35 PM85 °FScattered clouds.5 mph67%29.87 "Hg10 mi
5:15 PM86 °FSunny.7 mph63%29.87 "Hg10 mi
4:55 PM87 °FSunny.6 mph61%29.88 "Hg10 mi
4:35 PM86 °FSunny.5 mph63%29.88 "Hg10 mi
4:15 PM86 °FScattered clouds.6 mph61%29.90 "Hg10 mi
3:55 PM87 °FScattered clouds.5 mph62%29.90 "Hg10 mi
3:15 PM86 °FSunny.6 mph59%29.91 "Hg10 mi
2:55 PM87 °FSunny.6 mph58%29.91 "Hg10 mi
2:35 PM85 °FSunny.No wind61%29.93 "Hg10 mi
2:15 PM85 °FSunny.7 mph66%29.93 "Hg10 mi
1:55 PM84 °FSunny.5 mph64%29.95 "Hg10 mi
1:30 PM84 °FSunny.6 mph63%29.95 "Hg10 mi
1:15 PM83 °FSunny.3 mph69%29.95 "Hg10 mi
12:55 PM82 °FSunny.5 mph73%29.96 "Hg10 mi
12:35 PM81 °FSunny.6 mph74%29.96 "Hg10 mi
12:15 PM80 °FScattered clouds.5 mph75%29.97 "Hg10 mi
11:55 AM77 °FScattered clouds.6 mph84%29.96 "Hg10 mi
11:35 AM76 °FPartly sunny.No wind87%29.99 "Hg10 mi
11:15 AM76 °FPartly sunny.No wind89%29.98 "Hg10 mi
10:55 AM74 °FOvercast.No wind100%29.97 "Hg10 mi
10:15 AM73 °FMostly cloudy.No wind100%29.96 "Hg10 mi
9:55 AM74 °FPartly sunny.No wind93%29.95 "Hg10 mi
9:35 AM74 °FScattered clouds.No wind90%29.95 "Hg10 mi
9:15 AM73 °FSunny.No wind100%29.96 "Hg7 mi
8:55 AM72 °FLight rain. Scattered clouds.No wind100%29.95 "Hg7 mi
8:35 AM71 °FLight rain. Cloudy.5 mph100%29.95 "Hg7 mi
8:15 AM70 °FOvercast.No wind100%29.97 "Hg7 mi
7:55 AM71 °FPartly sunny.No wind100%29.94 "Hg10 mi
7:35 AM71 °FSunny.No wind100%29.93 "Hg7 mi
7:15 AM68 °FClear.No wind100%29.94 "Hg7 mi
6:55 AM68 °FClear.No wind100%29.94 "Hg7 mi
6:35 AM68 °FClear.No wind100%29.94 "Hg10 mi
6:15 AM68 °FClear.No wind100%29.94 "Hg10 mi
5:55 AM68 °FClear.No wind100%29.94 "Hg10 mi
5:35 AM68 °FClear.No wind100%29.93 "Hg7 mi
5:15 AM68 °FClear.No wind100%29.93 "Hg10 mi
Weather by CustomWeather, © 2014

See weather overviewHow to use our weather pages